User: anonymous   Login
Location: Oroua River
(40.4333°S, 175.4333°E)
Time: 18:43:42
(UTC+00:00)
Language:

Cosmos 1371 Rocket - Orbit

View from above orbital plane
View from above orbital plane
View from above satellite
View from above satellite

Ground track
Ground track

The orbit data is extracted from the following two-line orbital elements,

1 13242U 82051B   24140.82469842  .00000799  00000-0  27927-3 0  9997
2 13242  74.0455  32.4389 0024940 329.8300  30.1415 14.36649529196607
Epoch (UTC): 19 May 2024 19:47:33
Eccentricity: 0.0024940
inclination: 74.0455°
perigee height: 752 km
apogee height: 787 km
right ascension of ascending node: 32.4389°
argument of perigee: 329.8300°
revolutions per day: 14.36649529
mean anomaly at epoch: 30.1415°
orbit number at epoch: 19660

The dashed part of the orbit path shows where the satellite is in the earth's shadow,  

DLR